Weather History for KLBE - January, 2012

Change the Weather History Date:

Thursday, January 12, 2012

  Actual Average Record
Temperature  
Mean Temperature 44 °F -  
Max Temperature 46 °F 34 °F - (-1)
Min Temperature 39 °F 20 °F - (-1)
Degree Days  
Heating Degree Days 22    
Moisture  
Dew Point 44 °F    
Average Humidity 98    
Maximum Humidity 100    
Minimum Humidity 93    
Precipitation  
Precipitation 0.00 in - - ()
Sea Level Pressure  
Sea Level Pressure 29.43 in    
Wind  
Wind Speed 7 mph (SSW)    
Max Wind Speed 16 mph    
Max Gust Speed 17 mph    
Visibility 6 miles    
Events Rain    
Averages and records for this station are not official NWS values.
T = Trace of Precipitation, MM = Missing Value Source: NWS Daily Summary

Daily Weather History Graph

Daily Weather History Graph

Search for Another Location

Airport or City:

Trip Planner

Search our weather history database for the weather conditions in past years. The results will help you decide how hot, cold, wet, or windy it might be!

Date:

Astronomy

Jan. 12, 2012 Rise Set
Actual Time 7:39 AM EST 5:12 PM EST
Civil Twilight 7:09 AM EST 5:42 PM EST
Nautical Twilight 6:35 AM EST 6:16 PM EST
Astronomical Twilight 6:03 AM EST 6:48 PM EST
Moon 9:16 PM EST (1/12) 9:21 AM EST (1/12)
Length of Visible Light 10h 33m
Length of Day
9h 32m
Waning Gibbous, 87% of the Moon is Illuminated
Jan 12
Waning Gibbous
Jan 16
Last Quarter
Jan 23
New
Jan 30
First Quarter
Feb 7
Full

Hourly Weather History & Observations

Time (EST) Temp. Windchill Dew Point Humidity Pressure Visibility Wind Dir Wind Speed Gust Speed Precip Events Conditions
6:00 AM 41.0 °F - 41.0 °F 100% 29.44 in 10.0 mi Calm Calm - N/A   Light Drizzle
6:47 AM 42.8 °F 41.1 °F 42.8 °F 100% 29.44 in 7.0 mi SSW 3.5 mph - N/A   Overcast
7:05 AM 42.8 °F 38.0 °F 42.8 °F 100% 29.44 in 2.0 mi SSW 8.1 mph - N/A   Light Drizzle
7:28 AM 44.6 °F 40.7 °F 44.6 °F 100% 29.44 in 3.0 mi South 6.9 mph - N/A   Overcast
7:47 AM 44.6 °F 40.2 °F 44.6 °F 100% 29.44 in 3.0 mi SSW 8.1 mph - N/A Rain Light Rain
8:35 AM 46.4 °F 41.1 °F 46.4 °F 100% 29.45 in 2.0 mi SW 11.5 mph 17.3 mph N/A   Light Drizzle
8:47 AM 46.4 °F 41.9 °F 46.4 °F 100% 29.45 in 1.5 mi SW 9.2 mph - N/A   Light Drizzle
9:07 AM 46.4 °F 41.5 °F 46.4 °F 100% 29.45 in 10.0 mi SSW 10.4 mph - N/A   Overcast
9:45 AM 46.4 °F 40.7 °F 46.4 °F 100% 29.46 in 1.2 mi SSW 12.7 mph - N/A   Light Drizzle
10:47 AM 44.6 °F 38.4 °F 44.6 °F 100% 29.47 in 2.5 mi SW 12.7 mph - N/A Rain Light Rain
11:47 AM 44.6 °F 39.7 °F 44.6 °F 100% 29.45 in 2.5 mi SSW 9.2 mph - N/A   Overcast
12:50 PM 44.6 °F 39.7 °F 44.6 °F 100% 29.44 in 3.0 mi SSW 9.2 mph - N/A   Overcast
1:50 PM 44.6 °F 37.4 °F 44.6 °F 100% 29.43 in 5.0 mi SSW 16.1 mph - N/A   Overcast
2:50 PM 46.4 °F 41.1 °F 44.6 °F 93% 29.43 in 10.0 mi SSW 11.5 mph - N/A   Overcast
3:50 PM 46.4 °F 41.1 °F 44.6 °F 93% 29.43 in 10.0 mi SSW 11.5 mph - N/A   Overcast
4:50 PM 46.4 °F 42.9 °F 44.6 °F 93% 29.44 in 10.0 mi SSW 6.9 mph - N/A   Overcast
5:50 PM 44.6 °F 39.7 °F 44.6 °F 100% 29.44 in 5.0 mi SSW 9.2 mph - N/A Rain Light Rain
6:50 PM 44.6 °F 40.7 °F 44.6 °F 100% 29.43 in 10.0 mi SSW 6.9 mph - N/A Rain Light Rain
7:50 PM 44.6 °F 40.7 °F 42.8 °F 93% 29.40 in 10.0 mi SSW 6.9 mph - N/A   Light Drizzle
8:50 PM 44.6 °F - 42.8 °F 93% 29.36 in 10.0 mi Calm Calm - N/A   Overcast
9:50 PM 39.2 °F - 39.2 °F 100% 29.33 in 6.0 mi Calm Calm - N/A   Overcast